52P/Harrington-Abell (2021)

Japanese version
Home page
Updated on November 3, 2020

---------------------------------------------------------------------

* Profile

* Orbital Elements

Epoch 2021 Sept. 23.0 TT = JDT 2459480.5
T 2021 Oct. 5.18888 TT                                  MPC
q   1.7772255            (2000.0)            P               Q
n   0.12975416     Peri.  139.59337     -0.44917945     -0.89070553
a   3.8641608      Node   336.83796     +0.76708055     -0.34437687
e   0.5400746      Incl.   10.23173     +0.45806685     -0.29672923
P   7.60
From 1179 observations 1983 Sept. 17-2014 May 3, mean residual 0".6.
     Nongravitational parameters A1 = +0.15, A2 = +0.0049.

* Finding Charts

* Magnitudes Graph

        m1 = 10.0 + 5 log d + 18.0 log r

---------------------------------------------------------------------

The orbital elements are published on M.P.E.C. 2014-J58.
The charts are made with StellaNavigator Ver.10 (AstroArts).
The magnitudes graphs are made with Comet for Windows.

---------------------------------------------------------------------

Copyright(C) Seiichi Yoshida (comet@aerith.net). All rights reserved.